Погода в Читкан

Россия / Республика Бурятия     53°29′59″N   109°46′33″E
темп.,
°C
ветер,
м/с
пор.,
м/с
влажн.,
%
обл.,
%
осадки,
мм/ч
давл.,
гПа
погр.,
м
9 мая, вс
вс923:00+1ююз366843 0.0 1012120
02:00+2юз3566100 0.0 1012143
05:000юз237499 0.1 101244
08:00+5зюз3662100 0.1 1011661
11:00+7зюз4559100 0.0 10101074
14:00+9зюз565499 0.2 10081467
17:00+9зюз555465 0.1 10081266
20:00+4юз2481100 0.1 100992
10 мая, пн
пн1023:00+2ююз2289100 0.0 101018
02:00+1ю1186100 0.0 101010
05:00+1зсз0089100 0.0 101010
08:00+4з1179100 0.0 1010374
11:00+4зюз3385100 0.1 1011466
14:00+5зюз4579100 0.2 1012678
17:00+4зюз4578100 0.0 1012683
20:00+3зюз358798 0.1 1014447
11 мая, вт
вт1123:00+1юз359656 0.0 1015111
02:000ююз239425 0.0 101554
05:00−1юз239522 0.0 101665
08:00+3зюз347980 0.0 1015567
11:00+5зюз457292 0.0 1015818
14:00+7зюз676266 0.1 10131046
17:00+8з67538 0.0 10121072
20:00+4юз59754 0.0 1014472
12 мая, ср
ср1223:000юз46888 0.0 1015160
02:00−1юз369422 0.0 1015132
05:00−2юз359523 0.0 1015111
08:00+3зюз46647 0.0 1014633
11:00+8з67383 0.0 10111501
14:00+9з68325 0.0 10101827
17:00+8з57309 0.0 10091654
20:00+4зюз36473 0.0 1011169
13 мая, чт
чт1323:00−1юз34623 0.0 101368
02:00−2юз34660 0.0 101359
05:00−3ююз22730 0.0 101329
08:00+3з22470 0.0 1012626
11:00+7з333650 0.1 10112026
14:00+8з5429100 0.1 10092412
17:00+8сз442780 0.0 10092255
20:00+3зюз354931 0.1 1013213